When you browse on this site, cookies collect data to enhance your experience and personalize the content and advertising you see.
Visit our Privacy Policy to learn more. By continuing to use the site, you agree to this use of cookies and data.
  • In France
  • List of Countries
  • For 7 days
  • Water Temperature
  • Weather Map
  • Weather Widgets
  • user-avatar
    Login

    Hourly Weather Sliven

    Today, 22 September, Sunday

    Time Temperature Precipitation Wind Pressure Humidity
    00:00 +10°C° 0 mm 1 mps 739 mmHg 61%
    01:00 +10°C° 0 mm 1 mps 739 mmHg 62%
    02:00 +10°C° 0 mm 1 mps 738 mmHg 65%
    03:00 +9°C° 0 mm 1 mps 738 mmHg 65%
    04:00 +8°C° 0 mm 0 mps 738 mmHg 66%
    05:00 +8°C° 0 mm 0 mps 738 mmHg 66%
    06:00 +10°C° 0 mm 0 mps 738 mmHg 61%
    07:00 +12°C° 0 mm 1 mps 738 mmHg 55%
    08:00 +13°C° 0 mm 1 mps 738 mmHg 50%
    09:00 +15°C° 0 mm 1 mps 738 mmHg 44%
    10:00 +18°C° 0 mm 1 mps 738 mmHg 38%
    11:00 +19°C° 0 mm 2 mps 738 mmHg 33%
    12:00 +20°C° 0 mm 2 mps 737 mmHg 31%
    13:00 +21°C° 0 mm 2 mps 737 mmHg 29%
    14:00 +23°C° 0 mm 2 mps 736 mmHg 27%
    15:00 +23°C° 0 mm 1 mps 736 mmHg 28%
    16:00 +22°C° 0 mm 1 mps 735 mmHg 29%
    17:00 +22°C° 0 mm 1 mps 735 mmHg 31%
    18:00 +20°C° 0 mm 1 mps 735 mmHg 38%
    19:00 +16°C° 0 mm 1 mps 735 mmHg 46%
    20:00 +14°C° 0 mm 2 mps 735 mmHg 53%
    21:00 +13°C° 0 mm 1 mps 734 mmHg 57%
    22:00 +13°C° 0 mm 1 mps 734 mmHg 61%
    23:00 +12°C° 0 mm 1 mps 734 mmHg 65%

    Tomorrow, 23 September, Monday

    Time Temperature Precipitation Wind Pressure Humidity
    00:00 +12°C° 0 mm 1 mps 734 mmHg 66%
    01:00 +12°C° 0 mm 1 mps 734 mmHg 67%
    02:00 +10°C° 0 mm 0 mps 734 mmHg 68%
    03:00 +10°C° 0 mm 0 mps 733 mmHg 67%
    04:00 +11°C° 0 mm 1 mps 733 mmHg 67%
    05:00 +11°C° 0 mm 1 mps 733 mmHg 67%
    06:00 +13°C° 0 mm 1 mps 733 mmHg 62%
    07:00 +14°C° 0 mm 1 mps 733 mmHg 57%
    08:00 +16°C° 0 mm 1 mps 733 mmHg 51%
    09:00 +19°C° 0 mm 1 mps 733 mmHg 45%
    10:00 +21°C° 0 mm 1 mps 733 mmHg 38%
    11:00 +24°C° 0 mm 2 mps 733 mmHg 32%
    12:00 +25°C° 0 mm 2 mps 732 mmHg 30%
    13:00 +26°C° 0 mm 2 mps 732 mmHg 27%
    14:00 +27°C° 0 mm 2 mps 732 mmHg 25%
    15:00 +26°C° 0 mm 2 mps 731 mmHg 27%
    16:00 +26°C° 0 mm 1 mps 731 mmHg 29%
    17:00 +26°C° 0 mm 1 mps 731 mmHg 30%
    18:00 +23°C° 0 mm 1 mps 731 mmHg 40%
    19:00 +20°C° 0 mm 2 mps 731 mmHg 49%
    20:00 +17°C° 0 mm 2 mps 731 mmHg 59%
    21:00 +17°C° 0 mm 2 mps 731 mmHg 61%
    22:00 +17°C° 0 mm 2 mps 731 mmHg 63%
    23:00 +17°C° 0 mm 2 mps 731 mmHg 65%

    Day after tomorrow, 24 September, Tuesday

    Time Temperature Precipitation Wind Pressure Humidity
    00:00 +17°C° 0 mm 2 mps 731 mmHg 66%
    01:00 +18°C° 0 mm 1 mps 731 mmHg 67%
    02:00 +18°C° 0 mm 1 mps 731 mmHg 68%
    03:00 +18°C° 0.1 mm 1 mps 731 mmHg 69%
    04:00 +16°C° 0.1 mm 1 mps 730 mmHg 71%
    05:00 +16°C° 0.1 mm 2 mps 730 mmHg 73%
    06:00 +16°C° 0 mm 2 mps 730 mmHg 73%
    07:00 +17°C° 0 mm 2 mps 730 mmHg 73%
    08:00 +17°C° 0 mm 2 mps 730 mmHg 73%
    09:00 +19°C° 0 mm 3 mps 730 mmHg 67%
    10:00 +20°C° 0 mm 3 mps 730 mmHg 61%
    11:00 +21°C° 0 mm 4 mps 730 mmHg 55%
    12:00 +22°C° 0 mm 4 mps 730 mmHg 52%
    13:00 +23°C° 0 mm 4 mps 730 mmHg 48%
    14:00 +25°C° 0 mm 4 mps 730 mmHg 45%
    15:00 +23°C° 0 mm 4 mps 730 mmHg 51%
    16:00 +22°C° 0 mm 4 mps 729 mmHg 58%
    17:00 +20°C° 0 mm 4 mps 729 mmHg 64%
    18:00 +19°C° 0.1 mm 3 mps 729 mmHg 70%
    19:00 +18°C° 0.1 mm 3 mps 729 mmHg 76%
    20:00 +17°C° 0.1 mm 3 mps 729 mmHg 83%
    21:00 +17°C° 0.1 mm 2 mps 729 mmHg 84%
    22:00 +17°C° 0.1 mm 2 mps 729 mmHg 85%
    23:00 +17°C° 0.1 mm 2 mps 729 mmHg 87%

    25 September, Wednesday

    Time Temperature Precipitation Wind Pressure Humidity
    00:00 +18°C° 0.2 mm 1 mps 729 mmHg 88%
    01:00 +18°C° 0.2 mm 1 mps 729 mmHg 89%
    02:00 +16°C° 0.2 mm 1 mps 729 mmHg 90%
    03:00 +16°C° 0.2 mm 1 mps 729 mmHg 90%
    04:00 +16°C° 0.2 mm 1 mps 729 mmHg 90%
    05:00 +16°C° 0.2 mm 1 mps 729 mmHg 90%
    06:00 +16°C° 0.2 mm 1 mps 729 mmHg 89%
    07:00 +16°C° 0.2 mm 1 mps 729 mmHg 89%
    08:00 +18°C° 0.2 mm 1 mps 729 mmHg 88%
    09:00 +18°C° 0.1 mm 1 mps 729 mmHg 85%
    10:00 +17°C° 0.1 mm 2 mps 730 mmHg 83%
    11:00 +18°C° 0.1 mm 2 mps 730 mmHg 80%
    12:00 +19°C° 0 mm 2 mps 730 mmHg 76%
    13:00 +19°C° 0 mm 2 mps 730 mmHg 73%
    14:00 +20°C° 0 mm 2 mps 729 mmHg 69%
    15:00 +20°C° 0 mm 2 mps 729 mmHg 67%
    16:00 +21°C° 0 mm 1 mps 729 mmHg 65%
    17:00 +21°C° 0 mm 1 mps 729 mmHg 64%
    18:00 +20°C° 0 mm 1 mps 729 mmHg 69%
    19:00 +19°C° 0 mm 1 mps 729 mmHg 74%
    20:00 +18°C° 0 mm 1 mps 729 mmHg 79%
    21:00 +18°C° 0 mm 1 mps 729 mmHg 83%
    22:00 +18°C° 0 mm 1 mps 729 mmHg 86%
    23:00 +16°C° 0 mm 1 mps 729 mmHg 89%

    26 September, Thursday

    Time Temperature Precipitation Wind Pressure Humidity
    00:00 +16°C° 0 mm 1 mps 729 mmHg 89%
    01:00 +16°C° 0 mm 1 mps 729 mmHg 88%
    02:00 +16°C° 0 mm 1 mps 729 mmHg 87%
    03:00 +16°C° 0 mm 1 mps 729 mmHg 88%
    04:00 +15°C° 0 mm 0 mps 729 mmHg 88%
    05:00 +15°C° 0 mm 0 mps 729 mmHg 88%
    06:00 +15°C° 0 mm 0 mps 729 mmHg 85%
    07:00 +18°C° 0 mm 1 mps 729 mmHg 81%
    08:00 +19°C° 0 mm 1 mps 729 mmHg 78%
    09:00 +20°C° 0.2 mm 1 mps 730 mmHg 72%
    10:00 +22°C° 0.2 mm 1 mps 730 mmHg 67%
    11:00 +23°C° 0.2 mm 2 mps 730 mmHg 61%
    12:00 +23°C° 0.6 mm 2 mps 730 mmHg 61%
    13:00 +23°C° 0.6 mm 2 mps 729 mmHg 61%
    14:00 +24°C° 0.6 mm 2 mps 729 mmHg 61%
    15:00 +21°C° 0.4 mm 2 mps 729 mmHg 66%
    16:00 +20°C° 0.4 mm 3 mps 729 mmHg 71%
    17:00 +19°C° 0.4 mm 3 mps 729 mmHg 75%
    18:00 +18°C° 0 mm 3 mps 729 mmHg 77%
    19:00 +18°C° 0 mm 2 mps 729 mmHg 79%
    20:00 +17°C° 0 mm 2 mps 730 mmHg 81%
    21:00 +17°C° 0 mm 2 mps 730 mmHg 82%
    22:00 +16°C° 0 mm 2 mps 730 mmHg 84%
    23:00 +15°C° 0 mm 2 mps 730 mmHg 85%

    27 September, Friday

    Time Temperature Precipitation Wind Pressure Humidity
    00:00 +14°C° 0 mm 3 mps 731 mmHg 85%
    01:00 +14°C° 0 mm 3 mps 731 mmHg 85%
    02:00 +13°C° 0 mm 3 mps 731 mmHg 86%
    03:00 +13°C° 0 mm 3 mps 731 mmHg 85%
    04:00 +12°C° 0 mm 3 mps 731 mmHg 85%
    05:00 +12°C° 0 mm 3 mps 732 mmHg 85%
    06:00 +13°C° 0 mm 3 mps 732 mmHg 80%
    07:00 +14°C° 0 mm 3 mps 732 mmHg 75%
    08:00 +16°C° 0 mm 3 mps 732 mmHg 70%
    09:00 +18°C° 0 mm 3 mps 733 mmHg 62%
    10:00 +20°C° 0 mm 3 mps 733 mmHg 54%
    11:00 +21°C° 0 mm 3 mps 734 mmHg 46%
    12:00 +22°C° 0 mm 3 mps 733 mmHg 43%
    13:00 +24°C° 0 mm 3 mps 733 mmHg 39%
    14:00 +25°C° 0 mm 2 mps 733 mmHg 36%
    15:00 +25°C° 0 mm 2 mps 733 mmHg 37%
    16:00 +24°C° 0 mm 2 mps 733 mmHg 38%
    17:00 +24°C° 0 mm 1 mps 733 mmHg 39%
    18:00 +22°C° 0 mm 1 mps 733 mmHg 43%
    19:00 +20°C° 0 mm 1 mps 733 mmHg 47%
    20:00 +18°C° 0 mm 1 mps 733 mmHg 52%
    21:00 +18°C° 0 mm 1 mps 734 mmHg 54%
    22:00 +16°C° 0 mm 1 mps 734 mmHg 57%
    23:00 +16°C° 0 mm 1 mps 734 mmHg 60%
    Show more